Search flights

Provo Muni Airport, Provo (KPVU)

Airport Weather & NOTAM's

METAR for:KPVU (Provo Muni, UT, US)
Text:KPVU 131256Z 00000KT 10SM CLR 18/07 A3005 RMK AO2 SLP113 T01830067
Conditions at:1256 UTC 13 Jun 2024
Temperature: 18.3°C ( 65°F)
Dewpoint: 6.7°C ( 44°F) [RH = 47%]
Pressure (altimeter):30.05 inches Hg (1017.7 mb) [Sea level pressure: 1011.3 mb]
Winds:calm
Visibility:10 or more sm (16+ km)
Ceiling:at least 12,000 feet AGL
Clouds:sky clear below 12,000 feet AGL
TAF for:KPVU (Provo Muni, UT, US) issued at 1120 UTC 13 Jun 2024
Text:KPVU 131120Z 1312/1412 15007KT P6SM SKC
Forecast period:1200 to 1900 UTC 13 June 2024
Forecast type:FROM: standard forecast or significant change
Winds:from the SSE (150 degrees) at 8 MPH (7 knots; 3.6 m/s)
Visibility:6 or more sm (10+ km)
Ceiling:at least 12,000 feet AGL
Clouds:clear skies
Text:FM131900 21010KT P6SM FEW250
Forecast period:1900 UTC 13 June 2024 to 0400 UTC 14 June 2024
Forecast type:FROM: standard forecast or significant change
Winds:from the SSW (210 degrees) at 12 MPH (10 knots; 5.1 m/s)
Visibility:6 or more sm (10+ km)
Ceiling:at least 12,000 feet AGL
Clouds:few clouds at 25000 feet AGL
Text:FM140400 16008KT P6SM FEW150 BKN200
Forecast period:0400 to 1200 UTC 14 June 2024
Forecast type:FROM: standard forecast or significant change
Winds:from the SSE (160 degrees) at 9 MPH (8 knots; 4.1 m/s)
Visibility:6 or more sm (10+ km)
Ceiling:20000 feet AGL
Clouds:few clouds at 15000 feet AGL, broken clouds at 20000 feet AGL

Live Departures & Arrivals

There are currently no arrivals or departures for this airport.

Departures History (last 12 months)

Flight No. Dest. Aircraft Date
AAY1600 KHOU Fenix A320... 2024-06-10 15:25:17
AAY238 KLAS PMDG 737-8... 2024-06-04 17:02:03
AAY238 KLAS PMDG 737-8... 2024-05-30 02:31:50
AAY3245 KBNA Fenix A320... 2024-05-23 10:59:16
AAY41 KLAS FWB Allegi... 2024-05-18 17:52:25
AAY41 KLAS FSLabs A31... 2024-05-13 01:15:41
AAY1586 KIWA Fenix A320... 2024-05-07 11:18:27
AAY717 KIWA A320 2024-05-04 13:15:00
AAY3229 KMDW FenixA320... 2024-04-24 08:12:16
AAY3301 KSAN FenixA320... 2024-04-23 17:37:27
AAY3233 KPHX Fenix A320... 2024-04-18 18:13:52
AAY1499 KAUS Fenix A320... 2024-04-11 13:54:13
AAY3301 KSAN Fenix A320... 2024-03-12 00:53:45
AAY1600 KLAX Fenix A320... 2024-03-08 18:24:12
AAY126 KLAS Fenix A320... 2024-03-05 02:09:00
AAY1499 KAUS FenixA320_... 2024-01-31 23:52:40
AAY1499 KAUS FenixA320_... 2024-01-30 00:36:53
AAY1597 KLAS Airbus A31... 2024-01-23 03:59:32
AAY1499 KAUS FenixA320_... 2024-01-21 15:07:05
AAY1499 KAUS FenixA320_... 2024-01-15 17:40:58
AAY3301 KSAN FenixA320... 2024-01-13 03:56:06
AAY1499 KAUS PMDG 737-7... 2024-01-12 23:24:07
AAY1499 KAUS PMDG 737-8... 2024-01-10 18:11:37
AAY3248 KLAS PMDG 737-8... 2024-01-08 12:48:30
AAY1499 KAUS PMDG 737-8... 2024-01-05 21:27:28
AAY1591 KPDX ToLissA319... 2023-12-30 17:10:30
AAY9100 KLAS FenixA320_... 2023-12-21 03:31:26
AAY1943 KBNA PMDG 737-8... 2023-12-16 13:00:59
AAY1589 KIWA FenixA320_... 2023-11-28 04:44:27
AAY9220 KSFB Airbus A32... 2023-11-26 17:18:54
AAY9220 KSFB Fly The Ma... 2023-11-25 11:44:17
AAY333 KPHX FenixA320_... 2023-11-25 02:13:00
AAY1603 KSFB Airbus A32... 2023-11-23 20:51:52
AAY3226 KSNA FenixA320_... 2023-11-19 17:54:41
AAY3217 KSAN FenixA320_... 2023-10-30 22:47:23
AAY1604 KSNA FenixA320_... 2023-10-09 02:33:20
AAY3419 KBNA Aerosoft A... 2023-09-14 17:05:55
AAY279 KSNA Aerosoft A... 2023-09-14 04:08:51
AAY3242 KSFB FenixA320_... 2023-08-16 17:57:47
AAY1594 KLAS FWB Allegi... 2023-08-01 19:05:11
AAY1597 KLAS FWB Allegi... 2023-07-20 23:20:11
AAY1603 KSFB Fly The Ma... 2023-07-12 19:53:21
AAY1600 KIWA FWB Allegi... 2023-06-29 14:31:25
AAY3238 KIWA FenixA320_... 2023-06-16 19:07:52

Arrivals History (last 12 months)

Flight No. Origin Aircraft Date
AAY238 KLAS PMDG 737-8... 2024-06-04 16:41:13
AAY238 KLAS PMDG 737-8... 2024-05-26 01:03:38
AAY1605 KIWA Fenix A320... 2024-05-20 12:42:34
AAY1601 KSNA FWB Allegi... 2024-05-18 17:38:49
AAY39 KLAS FSLabs A31... 2024-05-13 00:41:31
AAY1599 KSFB Fenix A320... 2024-05-07 10:33:14
AAY1595 KBNA Fenix A320... 2024-05-03 12:27:00
AAY1590 KSAN FenixA320... 2024-04-24 07:58:13
AAY786 KLAX FenixA320... 2024-04-23 17:31:02
AAY3214 KPHX Fenix A320... 2024-04-18 17:01:01
AAY1601 KSNA Fenix A320... 2024-04-11 13:32:57
AAY786 KLAX Fenix A320... 2024-03-11 18:51:19
AAY1599 KPHX Fenix A320... 2024-03-04 05:26:51
AAY1602 KIWA FenixA320_... 2024-02-13 19:52:42
AAY1599 KSNA FenixA320_... 2024-02-05 00:10:22
AAY1592 KSNA FenixA320_... 2024-01-30 04:28:17
AAY1592 KSNA FenixA320_... 2024-01-29 22:44:47
AAY3245 KSAN Airbus A31... 2024-01-22 06:48:07
AAY1592 KSNA FenixA320_... 2024-01-20 19:53:28
AAY3214 KLAS FenixA320_... 2024-01-16 06:25:51
AAY1588 KLAX FWB Allegi... 2024-01-16 18:16:26
AAY1592 KSNA FenixA320_... 2024-01-14 20:52:45
AAY786 KLAX FenixA320_... 2024-01-13 03:36:23
AAY1594 KLAS Fly The Ma... 2024-01-13 00:04:14
AAY951 KSNA PMDG 737-7... 2024-01-11 20:32:59
AAY1592 KSNA PMDG 737-7... 2024-01-11 22:50:01
AAY1592 KSNA PMDG 737-8... 2024-01-10 16:49:52
AAY3227 KMDW PMDG 737-8... 2024-01-07 17:50:00
AAY1588 KLAX FWB Allegi... 2024-01-04 23:04:05
AAY1592 KSNA Fly The Ma... 2024-01-03 22:37:01
AAY3214 KLAS ToLissA319... 2023-12-29 01:31:24
AAY3244 KLAS PA319 - Al... 2023-12-25 20:36:23
AAY3214 KLAS FenixA320_... 2023-12-16 05:37:21
AAY3141 KAUS PMDG 737-8... 2023-12-14 22:27:15
AAY3248 KLAS FenixA320_... 2023-12-06 19:18:09
AAY1596 KSNA ToLiss A32... 2023-12-06 05:59:32
AAY3249 KPHX FenixA320_... 2023-11-28 04:11:41
AAY3236 KSFB Airbus A32... 2023-11-27 18:52:59
AAY3418 KBNA FenixA320_... 2023-11-24 20:50:51
AAY1584 KPIE Airbus A32... 2023-11-24 00:24:56
AAY3239 KSFB Airbus A32... 2023-11-22 20:42:57
AAY1586 KSNA FenixA320_... 2023-10-16 03:26:12
AAY1594 KLAS FenixA320_... 2023-10-09 02:19:48
AAY1595 KSNA FenixA320_... 2023-10-08 20:51:17
AAY1594 KLAS FenixA320... 2023-10-06 21:18:13
AAY1586 KSNA FenixA320_... 2023-10-06 01:45:56
AAY1588 KLAX Airbus A31... 2023-09-21 00:38:50
AAY1586 KSNA Aerosoft A... 2023-09-14 17:03:58
AAY1589 KSFB FenixA320_... 2023-08-15 20:59:40
AAY1586 KIWA FWB Allegi... 2023-08-01 18:39:24
AAY3242 KPDX FWB Allegi... 2023-07-19 00:07:27
AAY1588 KLAX A20N 2023-07-19 09:54:00
AAY1588 KLAX Airbus A32... 2023-07-19 09:34:13
AAY1589 KSFB FWB Allegi... 2023-06-29 01:29:01
AAY3216 KSNA FenixA320_... 2023-06-16 18:29:10

Runway Information (Airport elevation: 4,497ft)

Runway 13 Length 8,598ft Width 140ft Elevation 4,494ft Surface Asphalt Heading 146
Runway 18 Length 6,621ft Width 160ft Elevation 4,494ft Surface Asphalt Heading 192
Runway 31 Length 8,598ft Width 140ft Elevation 4,494ft Surface Asphalt Heading 326
Runway 36 Length 6,621ft Width 160ft Elevation 4,494ft Surface Asphalt Heading 12

Airport Frequencies

Type APP/DEP Frequency 118.850 Mhz
Type ATIS Frequency 135.175 Mhz
Type AWOS Frequency 135.175 Mhz
Type D Frequency 118.850 Mhz
Type FSS Frequency 122.600 Mhz
Type Ground Frequency 119.400 Mhz
Type Tower Frequency 125.300 Mhz
Type AWOS Frequency 135.175 Mhz

Airport Navaids

No navaids to display.